[[{"header":{"parameterUnit":"m.s-1","parameterCategory":1,"la1":30.2991,"la2":30.254,"lo1":-89.0895,"lo2":-89.0444,"dy":0.0017,"dx":0.0017,"nx":28,"ny":28,"refTime":"2026-02-26T09:00:00:Z","depth":0,"parameterNumber":2,"parameterNumberName":"U-component_of_WINDS"},"data":[0,0,0,0,0,0,0,0,0,0,0,0,0,0,0,0,0,0,0,0,0,0,0,0,0,0,0,0,0,0,0,0,0,0,0,0,0,0,0,0,0,0,0,0,0,0,0,0,0,0,0,0,0,0,0,0,0,0,0.739,0.7388,0,0.7246,0.7245,0.7243,0.7209,0.721,0.7211,0.7212,0.7059,0.7054,0.7049,0,0,0,0,0,0,0,0,0,0,0,0,0,0.7631,0.7626,0.739,0.7388,0.7386,0.7246,0.7244,0.7242,0.7209,0.721,0.7212,0.7213,0.706,0.7054,0.7048,0,0,0,0,0,0,0,0,0,0,0,0,0,0.751,0.7625,0.739,0.7353,0.7348,0.7247,0.7244,0.7242,0.7209,0.721,0.7212,0.7213,0.7062,0.7055,0.7048,0.6971,0,0,0.7025,0.7021,0,0,0,0,0,0,0,0,0.7517,0.7501,0.736,0.7355,0.735,0.7247,0.7273,0.7151,0.7209,0.7262,0.7212,0.7214,0.712,0.7108,0.7077,0.6964,0.6957,0.7024,0.7019,0.7016,0.7014,0,0,0,0,0,0,0,0.7526,0.7507,0.7333,0.7358,0.7352,0.7342,0.7327,0.725,0.7184,0.7257,0.7254,0.7238,0.7117,0.7085,0.7073,0.6955,0.7024,0.7017,0.7013,0.701,0.6771,0.6769,0,0,0,0,0,0,0.7541,0.7515,0.7337,0.7329,0.7439,0.7336,0.7319,0.7279,0.7185,0.7172,0.7237,0.7237,0.7097,0.7082,0.7068,0.6971,0.7016,0.7009,0.7005,0.6773,0.677,0.6768,0,0,0,0,0,0,0.7546,0.7526,0.7343,0.7421,0.7397,0.7331,0.7285,0.7275,0.7242,0.717,0.7157,0.7216,0.7097,0.7078,0.6996,0.6965,0.7006,0.6999,0.6775,0.6772,0.6769,0.6777,0,0,0,0,0,0,0.7554,0.7528,0.7499,0.7421,0.7393,0.7275,0.7284,0.7271,0.723,0.7229,0.7146,0.7134,0.7097,0.7007,0.6988,0.6955,0.6993,0.6777,0.6773,0.677,0.6779,0.6774,0.6771,0,0,0,0,0,0.7562,0.7505,0.7498,0.7476,0.7356,0.7273,0.7257,0.7217,0.7228,0.7197,0.7151,0.7137,0.6972,0.6999,0.6977,0.6942,0.6779,0.6774,0.677,0.678,0.6775,0.6771,0,0,0,0,0,0,0.7579,0.7494,0.7485,0.7401,0.7345,0.7268,0.7228,0.7213,0.7151,0.7152,0.7104,0.7085,0.7005,0.6966,0.6997,0.6862,0.6876,0.6867,0.6891,0.6885,0.6881,0.6891,0.6987,0,0,0,0,0,0.7574,0.7515,0.7444,0.7377,0.735,0.7294,0.7256,0.7231,0.717,0.7145,0.7092,0.7032,0.6967,0.6924,0.686,0.6774,0.6755,0.6739,0.6735,0.6733,0.6724,0.6675,0.6666,0.6755,0.6755,0.6755,0,0,0.756,0.7507,0.7472,0.7379,0.7332,0.7271,0.7274,0.7209,0.7163,0.7134,0.7053,0.7013,0.6942,0.6857,0.6817,0.6822,0.6696,0.6727,0.6726,0.6719,0.667,0.6661,0.6654,0.6752,0.6753,0.6753,0,0,0.7504,0.7459,0.7398,0.7352,0.7283,0.7247,0.7233,0.7158,0.7131,0.7049,0.7027,0.6971,0.6859,0.681,0.677,0.6699,0.6682,0.6679,0.6657,0.6609,0.6602,0.6596,0.6568,0.6559,0.6672,0.6672,0.6672,0,0.7495,0.7404,0.7368,0.7305,0.7264,0.7239,0.7176,0.7133,0.7045,0.7016,0.7024,0.6884,0.6835,0.6737,0.672,0.669,0.667,0.6686,0.6607,0.66,0.6593,0.6566,0.6556,0.6672,0.6672,0.6672,0.6672,0,0.7396,0.7334,0.7293,0.7211,0.7166,0.7103,0.7056,0.7014,0.6994,0.6957,0.6873,0.6814,0.6737,0.6713,0.6692,0.6613,0.6618,0.6617,0.6628,0.6585,0.6559,0.6548,0.6672,0.6672,0.6672,0.6672,0,0,0.7342,0.7245,0.723,0.7193,0.7116,0.7066,0.7002,0.6929,0.6894,0.6835,0.6778,0.6687,0.6686,0.6641,0.6614,0.6572,0.6517,0.6576,0.6574,0.6565,0.6424,0.6423,0.6412,0.6508,0.6506,0.6505,0.643,0,0.7275,0.7162,0.7128,0.7032,0.6973,0.695,0.6895,0.6841,0.6805,0.6748,0.6708,0.6643,0.6648,0.662,0.6579,0.6533,0.6488,0.6538,0.6452,0.6449,0.6467,0.6399,0.6397,0.6329,0.6419,0.6418,0.6416,0,0.718,0.7122,0.7021,0.6953,0.6926,0.6877,0.6808,0.6755,0.6694,0.667,0.6622,0.6599,0.653,0.6549,0.6452,0.6487,0.645,0.6423,0.6419,0.6406,0.6428,0.6381,0.6306,0.6295,0.64,0.6401,0.6403,0,0.7148,0.7045,0.6971,0.694,0.6859,0.6825,0.6789,0.6729,0.6688,0.6628,0.66,0.6532,0.6494,0.6441,0.64,0.6418,0.6305,0.6321,0.6282,0.6282,0.6255,0.6257,0.617,0.6238,0.6238,0.6238,0.6238,0,0.7073,0.7011,0.6955,0.6909,0.6839,0.6802,0.6733,0.6696,0.6643,0.6588,0.6565,0.6514,0.6465,0.6406,0.6374,0.6297,0.6281,0.6258,0.6249,0.6258,0.626,0.623,0.6233,0.6235,0.6236,0.6237,0.6237,0,0.7023,0.6984,0.6901,0.6833,0.6815,0.6766,0.6706,0.666,0.6625,0.6556,0.6537,0.6482,0.6412,0.6367,0.6278,0.6256,0.6171,0.6165,0.6192,0.6187,0.6149,0.6152,0.6037,0.6019,0.6102,0.6102,0.6101,0,0.6977,0.6929,0.6857,0.682,0.6785,0.6725,0.6684,0.6646,0.6604,0.6531,0.6493,0.6423,0.6364,0.6253,0.6203,0.6135,0.6125,0.609,0.6114,0.6124,0.6121,0.6123,0.6117,0.6084,0.6084,0.6083,0.6083,0,0.6897,0.6881,0.6824,0.676,0.6712,0.666,0.6607,0.6577,0.653,0.6483,0.6413,0.6368,0.6279,0.6208,0.6135,0.6096,0.608,0.6076,0.6063,0.6069,0.6085,0.6073,0.6178,0.6078,0.6078,0.6079,0.6079,0.6079,0.6845,0.6802,0.6745,0.6682,0.6639,0.6591,0.6544,0.6505,0.6447,0.6372,0.6354,0.628,0.622,0.6121,0.6081,0.6021,0.6025,0.6007,0.6001,0.5996,0.5994,0.6099,0.6008,0.6009,0.6009,0.6009,0.6009,0,0.6762,0.6726,0.6669,0.6597,0.6547,0.6542,0.6483,0.6441,0.6377,0.6324,0.6268,0.6187,0.6119,0.6066,0.5995,0.5958,0.5949,0.594,0.594,0.5931,0.5996,0.6013,0.5949,0.5949,0.5949,0.5949,0.5949,0.5949,0.6713,0.6639,0.6616,0.6521,0.6484,0.6413,0.638,0.6335,0.6292,0.6204,0.6148,0.6116,0.6061,0.5987,0.5924,0.591,0.5884,0.5876,0.586,0.592,0.5927,0.5933,0.5949,0.5872,0.5872,0.58,0.5799,0.5799]},{"header":{"parameterUnit":"m.s-1","parameterCategory":1,"la1":30.2991,"la2":30.254,"lo1":-89.0895,"lo2":-89.0444,"dy":0.0017,"dx":0.0017,"nx":28,"ny":28,"refTime":"2026-02-26T09:00:00:Z","depth":0,"parameterNumber":3,"parameterNumberName":"V-component_of_WINDS"},"data":[0,0,0,0,0,0,0,0,0,0,0,0,0,0,0,0,0,0,0,0,0,0,0,0,0,0,0,0,0,0,0,0,0,0,0,0,0,0,0,0,0,0,0,0,0,0,0,0,0,0,0,0,0,0,0,0,0,0,2.7897,2.7897,0,2.7884,2.7884,2.7884,2.7856,2.7855,2.7854,2.7854,2.784,2.784,2.784,0,0,0,0,0,0,0,0,0,0,0,0,0,2.7899,2.7899,2.7897,2.7897,2.7897,2.7884,2.7884,2.7884,2.7856,2.7855,2.7854,2.7854,2.784,2.784,2.784,0,0,0,0,0,0,0,0,0,0,0,0,0,2.7893,2.7899,2.7897,2.7881,2.788,2.7884,2.7884,2.7883,2.7856,2.7855,2.7854,2.7853,2.784,2.784,2.784,2.7858,0,0,2.7841,2.7841,0,0,0,0,0,0,0,0,2.7893,2.7893,2.7884,2.7883,2.7881,2.787,2.7879,2.7875,2.7856,2.7865,2.7854,2.7853,2.7851,2.785,2.7849,2.7858,2.7857,2.7841,2.7841,2.7841,2.7841,0,0,0,0,0,0,0,2.7894,2.7893,2.7892,2.7884,2.7882,2.7875,2.7873,2.7878,2.7863,2.7864,2.7862,2.7861,2.785,2.7849,2.7849,2.7857,2.7841,2.7841,2.7841,2.7841,2.7881,2.7882,0,0,0,0,0,0,2.7897,2.7894,2.7892,2.7892,2.7885,2.7876,2.7874,2.7875,2.7863,2.786,2.7862,2.786,2.7849,2.7849,2.7848,2.7869,2.7841,2.7841,2.7841,2.788,2.7881,2.7882,0,0,0,0,0,0,2.7897,2.7897,2.7893,2.7892,2.7891,2.7877,2.7878,2.7875,2.7874,2.7861,2.7858,2.7864,2.7849,2.7848,2.7856,2.7868,2.7841,2.7842,2.7879,2.788,2.7881,2.7911,0,0,0,0,0,0,2.7897,2.7897,2.7904,2.7893,2.7891,2.7901,2.7879,2.7875,2.7875,2.7872,2.7862,2.786,2.7848,2.7856,2.7857,2.7868,2.7842,2.7878,2.7879,2.7881,2.7909,2.7914,2.7917,0,0,0,0,0,2.7897,2.7912,2.7904,2.7904,2.7899,2.7902,2.7901,2.7888,2.7876,2.7883,2.7874,2.786,2.7867,2.7857,2.7857,2.7869,2.7877,2.7879,2.7881,2.7907,2.7913,2.7917,0,0,0,0,0,0,2.7925,2.7911,2.7901,2.7913,2.7909,2.7897,2.7905,2.7893,2.7892,2.789,2.7873,2.7871,2.7882,2.7876,2.7866,2.7887,2.787,2.7872,2.789,2.7895,2.7899,2.79,2.7842,0,0,0,0,0,2.7933,2.7936,2.7923,2.7935,2.7934,2.792,2.7921,2.791,2.7905,2.7903,2.7895,2.7891,2.7892,2.7893,2.7893,2.7908,2.7906,2.7917,2.7921,2.7924,2.7926,2.7935,2.7939,2.7889,2.7889,2.7888,0,0,2.7948,2.7941,2.7944,2.7941,2.7936,2.794,2.7919,2.7923,2.7926,2.7904,2.7912,2.7906,2.7899,2.7912,2.7916,2.7907,2.794,2.7927,2.793,2.793,2.7937,2.7942,2.7946,2.789,2.789,2.7889,0,0,2.7979,2.7974,2.7983,2.7979,2.7973,2.7964,2.7966,2.7956,2.7952,2.7959,2.7943,2.7946,2.7948,2.7945,2.7943,2.7974,2.7961,2.7974,2.7995,2.8004,2.8008,2.8011,2.8022,2.8027,2.7976,2.7976,2.7976,0,2.7999,2.8005,2.799,2.7996,2.7995,2.7976,2.7985,2.7982,2.7976,2.7976,2.7966,2.797,2.7964,2.7975,2.7983,2.7982,2.7985,2.7975,2.8008,2.8011,2.8014,2.8025,2.8029,2.7978,2.7978,2.7978,2.7977,0,2.803,2.8034,2.8043,2.8038,2.8038,2.8046,2.8033,2.8035,2.8025,2.8017,2.8025,2.8018,2.8017,2.8019,2.8009,2.8029,2.8024,2.8011,2.7994,2.8021,2.8031,2.8035,2.798,2.798,2.7979,2.7979,0,0,2.8078,2.8065,2.8069,2.8066,2.8058,2.8061,2.8068,2.8068,2.807,2.8067,2.8073,2.8076,2.8064,2.8063,2.8052,2.8059,2.8085,2.8046,2.8046,2.8054,2.8107,2.8117,2.8122,2.8076,2.8077,2.8077,2.8108,0,2.8107,2.8119,2.8106,2.8121,2.8125,2.8106,2.8113,2.8108,2.8101,2.8104,2.8096,2.8098,2.8083,2.8082,2.8088,2.808,2.8095,2.8078,2.8082,2.8082,2.8084,2.8127,2.8137,2.8166,2.8111,2.8112,2.8112,0,2.8142,2.8141,2.8156,2.8148,2.8149,2.8155,2.8154,2.8156,2.8151,2.8145,2.8144,2.8132,2.8139,2.8122,2.8131,2.812,2.8121,2.8117,2.8118,2.8118,2.8099,2.8128,2.8174,2.8179,2.8118,2.8118,2.8117,0,2.8176,2.8178,2.8188,2.8186,2.8177,2.8182,2.8178,2.8172,2.8172,2.8171,2.8171,2.8171,2.8171,2.8171,2.8159,2.8148,2.817,2.8152,2.8166,2.8167,2.8172,2.8172,2.8219,2.8172,2.8172,2.8172,2.8172,0,2.821,2.822,2.8203,2.8209,2.822,2.8205,2.8217,2.8211,2.8206,2.8211,2.8195,2.8199,2.8183,2.8186,2.8177,2.8187,2.8186,2.8182,2.818,2.8184,2.8185,2.8185,2.8182,2.8173,2.8173,2.8172,2.8172,0,2.825,2.8239,2.8248,2.8238,2.8236,2.8245,2.8236,2.8241,2.8233,2.824,2.824,2.8228,2.8231,2.8219,2.822,2.8213,2.8228,2.8222,2.823,2.8228,2.8243,2.8242,2.8293,2.8299,2.8247,2.8248,2.8248,0,2.8272,2.828,2.8271,2.8273,2.827,2.8274,2.8274,2.826,2.8262,2.8257,2.8263,2.8265,2.8265,2.8271,2.8262,2.8263,2.8257,2.8274,2.8257,2.8261,2.8258,2.8258,2.8259,2.8278,2.8279,2.8279,2.828,0,2.8314,2.8308,2.831,2.831,2.8311,2.831,2.8308,2.8311,2.8296,2.8298,2.8301,2.8302,2.8303,2.8305,2.8304,2.83,2.8288,2.8285,2.8289,2.8293,2.8298,2.8296,2.824,2.8284,2.8284,2.8284,2.8283,2.8283,2.8346,2.8352,2.8347,2.835,2.8347,2.8346,2.835,2.8343,2.8346,2.8345,2.8337,2.8342,2.8337,2.8335,2.8332,2.8336,2.8328,2.8332,2.8334,2.8335,2.8338,2.8297,2.8335,2.8335,2.8335,2.8335,2.8335,0,2.8387,2.8383,2.8386,2.8384,2.8386,2.8374,2.8372,2.8374,2.8379,2.8376,2.8377,2.8381,2.8383,2.8374,2.8375,2.838,2.8374,2.8381,2.838,2.838,2.8345,2.8342,2.8385,2.8385,2.8385,2.8385,2.8385,2.8385,2.8409,2.8419,2.8413,2.8422,2.8417,2.8422,2.8422,2.8421,2.8418,2.8423,2.8425,2.8419,2.8414,2.8415,2.8416,2.8414,2.8415,2.8424,2.8419,2.8387,2.8382,2.8378,2.8375,2.8424,2.8424,2.8454,2.8454,2.8455]}]]